User: anonymous   Login
Location: Unspecified
(0.0000°N, 0.0000°E)
Time: 03:30:59
(UTC+00:00)
Language:

GALILEO 9 (205) - Orbit

View from above orbital plane
View from above orbital plane
View from above satellite
View from above satellite

Ground track
Ground track

The orbit data is extracted from the following two-line orbital elements,

1 40889U 15045A   17348.09894166 -.00000074  00000-0  00000+0 0  9991
2 40889  56.8833 307.2247 0003527 335.7160  24.2453  1.70474435 14045
Epoch (UTC): 14 December 2017 02:22:28
Eccentricity: 0.0003527
inclination: 56.8833°
perigee height: 23211 km
apogee height: 23232 km
right ascension of ascending node: 307.2247°
argument of perigee: 335.7160°
revolutions per day: 1.70474435
mean anomaly at epoch: 24.2453°
orbit number at epoch: 1404

The dashed part of the orbit path shows where the satellite is in the earth's shadow,  

DLR